Tracking 29065 objects as of 22-Jul-2024
HD Live streaming from Space Station
objects crossing your sky now

COSMOS 1275 DEB

Track COSMOS 1275 DEB now!
10-day predictions


NORAD ID: 18275
Int'l Code: 1981-053LT
Perigee: 915.9 km
Apogee: 1,116.6 km
Inclination: 82.9 °
Period: 105.3 minutes
Semi major axis: 7387 km
RCS: 0.0076 m2 (small)
Launch date: June 4, 1981
Source: Commonwealth of Independent States (former USSR) (CIS)
Launch site: PLESETSK MISSILE AND SPACE COMPLEX (PKMTR)

Note: This is SATELLITE DEBRIS
Your satellite tracking list
Your tracking list is empty




NASA's NSSDC Master Catalog

Two Line Element Set (TLE):
1 18275U 81053LQ  24203.10543031  .00000962  00000-0  10564-2 0  9993
2 18275  82.9289 334.8273 0135875  70.1698  53.0626 13.67354263961225
Source of the keplerian elements: AFSPC